Andover, VA

11:17 AM EST on February 09, 2016 (GMT -0500)
Lonesome Pine

Weather History for KLNP - November, 2014

Change the Weather History Date:

Saturday, November 29, 2014

  Actual Average Record
Temperature  
Mean Temperature 39 °F -  
Max Temperature 50 °F 48 °F 69 °F (2001)
Min Temperature 28 °F 31 °F 19 °F (2002)
Degree Days  
Heating Degree Days 26    
Moisture  
Dew Point 26 °F    
Average Humidity 56    
Maximum Humidity 71    
Minimum Humidity 42    
Precipitation  
Precipitation 0.00 in - - ()
Sea Level Pressure  
Sea Level Pressure 30.12 in    
Wind  
Wind Speed 11 mph (SW)    
Max Wind Speed 28 mph    
Max Gust Speed 37 mph    
Visibility 10 miles    
Events      
Averages and records for this station are not official NWS values.
T = Trace of Precipitation, MM = Missing Value Source: NWS Daily Summary

Daily Weather History Graph

Daily Weather History Graph

Search for Another Location

Airport or City:

Trip Planner

Search our weather history database for the weather conditions in past years. The results will help you decide how hot, cold, wet, or windy it might be!

Date:

Astronomy

Nov. 29, 2014 Rise Set
Actual Time 7:22 AM EST 5:13 PM EST
Civil Twilight 6:54 AM EST 5:42 PM EST
Nautical Twilight 6:22 AM EST 6:14 PM EST
Astronomical Twilight 5:51 AM EST 6:45 PM EST
Moon 12:58 PM EST (11/29) No Moon Set
Length of Visible Light 10h 48m
Length of Day
9h 51m
First Quarter, 53% of the Moon is Illuminated
Nov 29
First Quarter
Dec 6
Full
Dec 14
Last Quarter
Dec 21
New
Dec 28
First Quarter

Hourly Weather History & Observations

Time (EST) Temp. Windchill Dew Point Humidity Pressure Visibility Wind Dir Wind Speed Gust Speed Precip Events Conditions
12:15 AM 30.2 °F 21.9 °F 17.6 °F 60% 30.14 in 10.0 mi SW 9.2 mph - N/A   Clear
12:35 AM 30.2 °F 23.4 °F 17.6 °F 60% 30.14 in 10.0 mi SSW 6.9 mph - N/A   Clear
12:55 AM 28.4 °F 21.2 °F 17.6 °F 64% 30.14 in 10.0 mi SSW 6.9 mph - N/A   Clear
1:15 AM 30.2 °F 23.4 °F 19.4 °F 64% 30.12 in 10.0 mi SSW 6.9 mph - N/A   Clear
1:35 AM 30.2 °F 23.4 °F 17.6 °F 60% 30.12 in 10.0 mi SSW 6.9 mph - N/A   Clear
1:55 AM 30.2 °F 23.4 °F 19.4 °F 64% 30.12 in 10.0 mi SSW 6.9 mph - N/A   Clear
2:15 AM 30.2 °F 23.4 °F 19.4 °F 64% 30.13 in 10.0 mi SSW 6.9 mph - N/A   Clear
2:35 AM 32.0 °F 25.6 °F 21.2 °F 64% 30.14 in 10.0 mi SSW 6.9 mph - N/A   Scattered Clouds
2:55 AM 32.0 °F 26.4 °F 21.2 °F 64% 30.14 in 10.0 mi SSW 5.8 mph - N/A   Scattered Clouds
3:15 AM 32.0 °F 26.4 °F 19.4 °F 60% 30.14 in 10.0 mi SSW 5.8 mph - N/A   Scattered Clouds
3:35 AM 32.0 °F 24.8 °F 19.4 °F 60% 30.15 in 10.0 mi SW 8.1 mph - N/A   Clear
3:55 AM 33.8 °F 26.4 °F 19.4 °F 56% 30.14 in 10.0 mi SSW 9.2 mph - N/A   Clear
4:15 AM 33.8 °F 28.6 °F 17.6 °F 52% 30.15 in 10.0 mi SW 5.8 mph - N/A   Clear
4:35 AM 33.8 °F 25.8 °F 17.6 °F 52% 30.15 in 10.0 mi SW 10.4 mph - N/A   Clear
4:55 AM 33.8 °F 24.8 °F 17.6 °F 52% 30.16 in 10.0 mi WSW 12.7 mph - N/A   Clear
5:15 AM 33.8 °F 25.3 °F 17.6 °F 52% 30.16 in 10.0 mi SW 11.5 mph - N/A   Clear
5:35 AM 35.6 °F 28.0 °F 17.6 °F 48% 30.16 in 10.0 mi SW 10.4 mph 18.4 mph N/A   Clear
5:55 AM 35.6 °F 28.0 °F 17.6 °F 48% 30.16 in 10.0 mi SW 10.4 mph - N/A   Clear
6:15 AM 35.6 °F 26.6 °F 17.6 °F 48% 30.16 in 10.0 mi SW 13.8 mph - N/A   Clear
6:35 AM 35.6 °F 27.1 °F 17.6 °F 48% 30.16 in 10.0 mi SW 12.7 mph 21.9 mph N/A   Clear
6:55 AM 35.6 °F 26.2 °F 17.6 °F 48% 30.16 in 10.0 mi SW 15.0 mph 21.9 mph N/A   Clear
7:15 AM 35.6 °F 25.2 °F 17.6 °F 48% 30.16 in 10.0 mi SW 18.4 mph 23.0 mph N/A   Clear
7:35 AM 35.6 °F 27.1 °F 17.6 °F 48% 30.16 in 10.0 mi SW 12.7 mph - N/A   Clear
7:55 AM 35.6 °F 27.5 °F 19.4 °F 52% 30.16 in 10.0 mi SW 11.5 mph - N/A   Clear
8:15 AM 35.6 °F 27.5 °F 19.4 °F 52% 30.17 in 10.0 mi WSW 11.5 mph 17.3 mph N/A   Clear
8:35 AM 37.4 °F 28.5 °F 17.6 °F 45% 30.16 in 10.0 mi SW 15.0 mph 21.9 mph N/A   Clear
8:55 AM 37.4 °F 27.8 °F 19.4 °F 48% 30.16 in 10.0 mi SW 17.3 mph 21.9 mph N/A   Clear
9:15 AM 39.2 °F 31.2 °F 19.4 °F 45% 30.16 in 10.0 mi SW 13.8 mph - N/A   Clear
9:35 AM 41.0 °F 32.2 °F 19.4 °F 42% 30.16 in 10.0 mi SW 18.4 mph 23.0 mph N/A   Clear
9:55 AM 41.0 °F 32.5 °F 19.4 °F 42% 30.17 in 10.0 mi SW 17.3 mph 23.0 mph N/A   Clear
10:15 AM 42.8 °F 35.8 °F 21.2 °F 42% 30.17 in 10.0 mi WSW 13.8 mph 20.7 mph N/A   Clear
10:35 AM 42.8 °F 35.1 °F 21.2 °F 42% 30.17 in 10.0 mi WSW 16.1 mph 23.0 mph N/A   Clear
10:55 AM 42.8 °F 35.4 °F 21.2 °F 42% 30.17 in 10.0 mi SW 15.0 mph 20.7 mph N/A   Clear
11:15 AM 42.8 °F 34.8 °F 21.2 °F 42% 30.16 in 10.0 mi WSW 17.3 mph - N/A   Clear
11:35 AM 42.8 °F 34.8 °F 23.0 °F 46% 30.15 in 10.0 mi SW 17.3 mph 21.9 mph N/A   Scattered Clouds
11:55 AM 42.8 °F 37.5 °F 23.0 °F 46% 30.14 in 10.0 mi SW 9.2 mph - N/A   Overcast
12:15 PM 44.6 °F 39.2 °F 24.8 °F 46% 30.14 in 10.0 mi SW 10.4 mph - N/A   Scattered Clouds
12:35 PM 46.4 °F 39.8 °F 26.6 °F 46% 30.13 in 10.0 mi SW 16.1 mph 19.6 mph N/A   Mostly Cloudy
12:55 PM 46.4 °F 39.5 °F 26.6 °F 46% 30.12 in 10.0 mi SW 17.3 mph 20.7 mph N/A   Mostly Cloudy
1:15 PM 46.4 °F 39.8 °F 28.4 °F 50% 30.12 in 10.0 mi SW 16.1 mph - N/A   Mostly Cloudy
1:35 PM 44.6 °F 38.8 °F 28.4 °F 53% 30.11 in 10.0 mi SW 11.5 mph - N/A   Overcast
1:55 PM 42.8 °F 37.0 °F 30.2 °F 61% 30.11 in 10.0 mi WSW 10.4 mph - N/A   Overcast
2:15 PM 42.8 °F 36.6 °F 30.2 °F 61% 30.11 in 10.0 mi SW 11.5 mph - N/A   Overcast
2:35 PM 42.8 °F 37.5 °F 28.4 °F 57% 30.10 in 10.0 mi SW 9.2 mph - N/A   Overcast
2:55 PM 42.8 °F 37.0 °F 28.4 °F 57% 30.10 in 10.0 mi SW 10.4 mph - N/A   Overcast
3:15 PM 42.8 °F 37.5 °F 28.4 °F 57% 30.09 in 10.0 mi SW 9.2 mph - N/A   Overcast
3:35 PM 42.8 °F 38.0 °F 28.4 °F 57% 30.08 in 10.0 mi SW 8.1 mph - N/A   Overcast
3:55 PM 42.8 °F 37.0 °F 30.2 °F 61% 30.09 in 10.0 mi WSW 10.4 mph - N/A   Overcast
4:15 PM 44.6 °F 38.8 °F 32.0 °F 61% 30.07 in 10.0 mi SW 11.5 mph - N/A   Overcast
4:35 PM 46.4 °F 40.7 °F 33.8 °F 62% 30.07 in 10.0 mi SW 12.7 mph 18.4 mph N/A   Overcast
4:55 PM 46.4 °F 40.1 °F 35.6 °F 66% 30.07 in 10.0 mi SSW 15.0 mph 25.3 mph N/A   Overcast
5:15 PM 46.4 °F 40.7 °F 35.6 °F 66% 30.07 in 10.0 mi SW 12.7 mph 21.9 mph N/A   Scattered Clouds
5:35 PM 46.4 °F 40.7 °F 35.6 °F 66% 30.07 in 10.0 mi SW 12.7 mph 20.7 mph N/A   Scattered Clouds
5:55 PM 46.4 °F 40.7 °F 35.6 °F 66% 30.07 in 10.0 mi SW 12.7 mph 17.3 mph N/A   Mostly Cloudy
6:15 PM 46.4 °F 41.1 °F 35.6 °F 66% 30.07 in 10.0 mi SW 11.5 mph - N/A   Overcast
6:35 PM 46.4 °F 41.1 °F 35.6 °F 66% 30.07 in 10.0 mi SW 11.5 mph 23.0 mph N/A   Mostly Cloudy
6:55 PM 46.4 °F 40.4 °F 35.6 °F 66% 30.07 in 10.0 mi SSW 13.8 mph 18.4 mph N/A   Mostly Cloudy
7:15 PM 46.4 °F 40.1 °F 37.4 °F 71% 30.07 in 10.0 mi SSW 15.0 mph 23.0 mph N/A   Mostly Cloudy
7:35 PM 50.0 °F - 37.4 °F 62% 30.07 in 10.0 mi SW 17.3 mph 26.5 mph N/A   Overcast
7:55 PM 50.0 °F - 37.4 °F 62% 30.07 in 10.0 mi SSW 17.3 mph 32.2 mph N/A   Mostly Cloudy
8:15 PM 50.0 °F - 37.4 °F 62% 30.07 in 10.0 mi SW 19.6 mph 28.8 mph N/A   Scattered Clouds
8:35 PM 50.0 °F - 37.4 °F 62% 30.05 in 10.0 mi SSW 20.7 mph 35.7 mph N/A   Clear
8:55 PM 50.0 °F - 37.4 °F 62% 30.06 in 10.0 mi SW 16.1 mph 25.3 mph N/A   Clear
9:15 PM 50.0 °F - 37.4 °F 62% 30.05 in 10.0 mi SSW 19.6 mph 26.5 mph N/A   Scattered Clouds
9:35 PM 50.0 °F - 37.4 °F 62% 30.06 in 10.0 mi SW 17.3 mph - N/A   Scattered Clouds
9:55 PM 50.0 °F - 37.4 °F 62% 30.06 in 10.0 mi SW 18.4 mph 25.3 mph N/A   Scattered Clouds
10:15 PM 50.0 °F - 37.4 °F 62% 30.06 in 10.0 mi SSW 21.9 mph 26.5 mph N/A   Scattered Clouds
10:35 PM 50.0 °F - 37.4 °F 62% 30.06 in 10.0 mi SW 20.7 mph 32.2 mph N/A   Scattered Clouds
10:55 PM 50.0 °F - 37.4 °F 62% 30.07 in 10.0 mi SW 19.6 mph 32.2 mph N/A   Scattered Clouds
11:15 PM 50.0 °F - 37.4 °F 62% 30.07 in 10.0 mi SW 24.2 mph 34.5 mph N/A   Scattered Clouds
11:35 PM 50.0 °F - 37.4 °F 62% 30.07 in 10.0 mi SW 25.3 mph 33.4 mph N/A   Mostly Cloudy
11:55 PM 50.0 °F - 37.4 °F 62% 30.08 in 10.0 mi SW 27.6 mph 36.8 mph N/A   Scattered Clouds